C/2022 N1 ( Attard-Maury )

Japanese version
Home page
Updated on May 15, 2024

---------------------------------------------------------------------

* Profile

Discovery Date July 2, 2022
Magnitude 17.2 mag
Discoverer Georges Attard and Alain Maury (San Pedro de Atacama, Chile)

* Pictures

* Orbital Elements

Epoch 2024 Mar. 31.0 TT = JDT 2460400.5                                         
T 2022 Sept. 10.05025 TT                                Rudenko                 
q   1.4805671            (2000.0)            P               Q                  
z  +0.0270217      Peri.   41.04692     -0.13973923     -0.96461393             
 +/-0.0002575      Node   301.87395     -0.96329834     +0.08016726             
e   0.9599926      Incl.  164.73450     -0.22919262     +0.25118353             
>From 224 observations 2022 June 29-Sept. 19, mean residual 0".7.                

* Finding Charts

* Magnitudes Graph

        m1 = 15.5 + 5 log d + 10.0 log r

---------------------------------------------------------------------

The orbital elements are published on M.P.E.C. 2024-G193.
The charts are made with StellaNavigator Ver.10 (AstroArts).
The magnitudes graphs are made with Comet for Windows.

---------------------------------------------------------------------

Copyright(C) Seiichi Yoshida (comet@aerith.net). All rights reserved.